FENGYUN 1C DEB, 37441

Orbit data source: Space-Track

FENGYUN 1C DEB, 37441 is space debris in SSO originally from a launch on Mon, 10 May 1999 UTC launched from the Taiyaun Space Center, China (TSC). Fengyun 1C debris stems from the Chinese weather satellite Fengyun-1C, which was intentionally destroyed by a Chinese anti-satellite missile in 2007. This event dramatically increased the amount of space debris, with thousands of trackable fragments posing hazards to satellites and human spaceflight. The Fengyun 1C debris cloud has become a focal point in discussions about space sustainability and the need for international regulations to prevent the creation of new debris.

Loading next visibility...
Identifier
37441, 1999-025EHK
Orbit
SSO
Country
Flag of CNCN / PRC
Related business
Manufacturer
Unknown
Mission
Spacecraft
Bus & Motor
Unknown
Mass
Unknown
Launch date (UTC)
1999-05-10 (27 years ago)
Launch vehicle
Unknown
Launch site
Taiyaun Space Center, China (TSC)
Object type
Payload
Rocket body
Debris
Shape & HBR
Unknown shape, 0.1 m
Radar Cross Section
Small (<0.1 m²)

Expand to show TLE details & history
Last TLE update: 4 days ago

TLE from 4 days ago
0 FENGYUN 1C DEB
1 37441U 99025EHK 26205.73852697  .00000958  00000-0  13982-2 0  9993
2 37441  99.1415  27.8554 0506667 240.3668 114.6076 13.14647135851150
Epoch: 2026-07-24T17:43Z
TLE epoch observation values (Epoch: 2026-07-24T17:43:28.730Z)
Latitude
-0.00001°
Longitude
179.52484°
Altitude
1,383.59 km
Speed
7.084 km/s
True Right ascension
01h 51m 25s
True Declination
0° 00' 00"
Sunlit
Object was in daylight at epoch
Visualization orbit readout
Latitude
Unknown
Longitude
Unknown
Altitude
Unknown
Speed
Unknown
Apparent Right ascension
Unknown
Apparent Declination
Unknown
Sunlit
N/A
Visualization observer readout
Local Sidereal Time
09:45:00
Azimuth
Unknown
Elevation
Unknown
Doppler factor
Unknown
Orbital elements
Apogee altitude
1,586.635 km
Perigee altitude
818.458 km
Semi-major axis
7,580.683 km
Eccentricity
0.05067
Inclination
99.1415°
RAAN
27.8554°
Arg. of periapsis
240.3668°
True anomaly
119.74365°
Mean anomaly
114.6076°
Eccentric anomaly
117.1898°
Mean motion
3.28837 °/min
Orbital period
109.48 mins
BSTAR
0.0013982
Loading maneuver chart data...
Computing Atmospheric mass density...

Documentation

Showing up to 5 results
|